Time,TemperatureF,DewpointF,PressureIn,WindDirection,WindDirectionDegrees,WindSpeedMPH,WindSpeedGustMPH,Humidity,HourlyPrecipIn,Conditions,Clouds,dailyrainin,SoftwareType,DateUTC
2013-01-08 00:04:00,29.9,25.7,29.37,WNW,303,6.0,6.0,84,0.00,,,0.00,Wunderground v.1.15,2013-01-08 05:04:00,
2013-01-08 00:09:00,29.9,25.7,29.36,WNW,289,6.0,7.0,84,0.00,,,0.00,Wunderground v.1.15,2013-01-08 05:09:00,
2013-01-08 00:14:00,29.9,25.7,29.36,NW,304,6.0,7.0,84,0.00,,,0.00,Wunderground v.1.15,2013-01-08 05:14:00,
2013-01-08 00:19:00,29.9,25.7,29.36,WNW,294,6.0,7.0,84,0.00,,,0.00,Wunderground v.1.15,2013-01-08 05:19:00,
2013-01-08 00:24:00,30.0,25.8,29.36,WNW,301,6.0,7.0,84,0.00,,,0.00,Wunderground v.1.15,2013-01-08 05:24:00,
2013-01-08 00:29:00,30.1,25.8,29.36,West,274,6.0,6.0,84,0.00,,,0.00,Wunderground v.1.15,2013-01-08 05:29:00,
2013-01-08 00:34:00,30.0,25.5,29.36,WNW,300,7.0,7.0,83,0.00,,,0.00,Wunderground v.1.15,2013-01-08 05:34:00,
2013-01-08 00:39:00,29.9,25.4,29.36,NW,326,7.0,7.0,83,0.00,,,0.00,Wunderground v.1.15,2013-01-08 05:39:00,
2013-01-08 00:44:00,29.9,25.4,29.35,WNW,288,6.0,7.0,83,0.00,,,0.00,Wunderground v.1.15,2013-01-08 05:44:00,
2013-01-08 00:49:00,30.0,25.5,29.35,WNW,287,7.0,7.0,83,0.00,,,0.00,Wunderground v.1.15,2013-01-08 05:49:00,
2013-01-08 00:59:00,30.2,25.4,29.35,SW,233,7.0,9.0,82,0.00,,,0.00,Wunderground v.1.15,2013-01-08 05:59:00,
2013-01-08 01:04:00,30.2,25.4,29.35,WNW,297,7.0,10.0,82,0.00,,,0.00,Wunderground v.1.15,2013-01-08 06:04:00,
2013-01-08 01:09:00,30.2,25.1,29.35,NW,304,6.0,6.0,81,0.00,,,0.00,Wunderground v.1.15,2013-01-08 06:09:00,
2013-01-08 01:14:00,30.1,25.0,29.35,West,273,6.0,9.0,81,0.00,,,0.00,Wunderground v.1.15,2013-01-08 06:14:00,
2013-01-08 01:19:00,30.2,25.1,29.35,WNW,300,5.0,10.0,81,0.00,,,0.00,Wunderground v.1.15,2013-01-08 06:19:00,
2013-01-08 01:29:00,30.5,25.4,29.35,WNW,290,5.0,10.0,81,0.00,,,0.00,Wunderground v.1.15,2013-01-08 06:29:00,
2013-01-08 01:34:00,30.6,25.2,29.36,WNW,284,5.0,10.0,80,0.00,,,0.00,Wunderground v.1.15,2013-01-08 06:34:00,
2013-01-08 01:39:00,30.5,25.1,29.36,NW,317,4.0,4.0,80,0.00,,,0.00,Wunderground v.1.15,2013-01-08 06:39:00,
2013-01-08 01:44:00,30.4,25.0,29.36,WNW,292,3.0,5.0,80,0.00,,,0.00,Wunderground v.1.15,2013-01-08 06:44:00,
2013-01-08 01:49:00,30.5,25.1,29.36,WNW,289,3.0,3.0,80,0.00,,,0.00,Wunderground v.1.15,2013-01-08 06:49:00,
2013-01-08 01:54:00,30.6,25.2,29.36,West,273,4.0,5.0,80,0.00,,,0.00,Wunderground v.1.15,2013-01-08 06:54:00,
2013-01-08 01:59:00,30.5,24.8,29.35,WNW,294,5.0,10.0,79,0.00,,,0.00,Wunderground v.1.15,2013-01-08 06:59:00,
2013-01-08 02:04:00,30.7,25.0,29.35,WNW,291,6.0,10.0,79,0.00,,,0.00,Wunderground v.1.15,2013-01-08 07:04:00,
2013-01-08 02:09:00,30.8,24.7,29.36,NW,304,6.0,10.0,78,0.00,,,0.00,Wunderground v.1.15,2013-01-08 07:09:00,
2013-01-08 02:14:00,30.9,24.8,29.36,West,278,6.0,10.0,78,0.00,,,0.00,Wunderground v.1.15,2013-01-08 07:14:00,
2013-01-08 02:19:00,30.9,24.5,29.36,West,281,5.0,5.0,77,0.00,,,0.00,Wunderground v.1.15,2013-01-08 07:19:00,
2013-01-08 02:24:00,30.9,24.5,29.36,WNW,298,4.0,10.0,77,0.00,,,0.00,Wunderground v.1.15,2013-01-08 07:24:00,
2013-01-08 02:34:00,31.0,24.6,29.37,West,277,5.0,10.0,77,0.00,,,0.00,Wunderground v.1.15,2013-01-08 07:34:00,
2013-01-08 02:39:00,31.0,24.3,29.37,West,280,4.0,10.0,76,0.00,,,0.00,Wunderground v.1.15,2013-01-08 07:39:00,
2013-01-08 02:44:00,30.9,24.2,29.37,WNW,292,4.0,10.0,76,0.00,,,0.00,Wunderground v.1.15,2013-01-08 07:44:00,
2013-01-08 02:49:00,30.9,24.5,29.37,WNW,301,4.0,4.0,77,0.00,,,0.00,Wunderground v.1.15,2013-01-08 07:49:00,
2013-01-08 02:54:00,30.9,24.2,29.37,WNW,298,4.0,10.0,76,0.00,,,0.00,Wunderground v.1.15,2013-01-08 07:54:00,
2013-01-08 03:04:00,31.0,24.0,29.36,WNW,296,5.0,10.0,75,0.00,,,0.00,Wunderground v.1.15,2013-01-08 08:04:00,
2013-01-08 03:09:00,31.1,24.1,29.36,NW,311,5.0,10.0,75,0.00,,,0.00,Wunderground v.1.15,2013-01-08 08:09:00,
2013-01-08 03:14:00,31.1,24.1,29.37,NW,304,5.0,10.0,75,0.00,,,0.00,Wunderground v.1.15,2013-01-08 08:14:00,
2013-01-08 03:19:00,31.1,24.1,29.37,NW,319,4.0,4.0,75,0.00,,,0.00,Wunderground v.1.15,2013-01-08 08:19:00,
2013-01-08 03:24:00,31.0,24.0,29.37,NW,306,3.0,10.0,75,0.00,,,0.00,Wunderground v.1.15,2013-01-08 08:24:00,
2013-01-08 03:29:00,31.1,24.1,29.37,WNW,293,3.0,10.0,75,0.00,,,0.00,Wunderground v.1.15,2013-01-08 08:29:00,
2013-01-08 03:34:00,31.3,24.0,29.37,WNW,298,4.0,10.0,74,0.00,,,0.00,Wunderground v.1.15,2013-01-08 08:34:00,
2013-01-08 03:39:00,31.4,24.1,29.36,WNW,293,4.0,4.0,74,0.00,,,0.00,Wunderground v.1.15,2013-01-08 08:39:00,
2013-01-08 03:44:00,31.5,24.2,29.36,WNW,302,4.0,10.0,74,0.00,,,0.00,Wunderground v.1.15,2013-01-08 08:44:00,
2013-01-08 03:49:00,31.6,24.3,29.36,WNW,300,4.0,10.0,74,0.00,,,0.00,Wunderground v.1.15,2013-01-08 08:49:00,
2013-01-08 03:54:00,31.7,24.4,29.36,WNW,297,4.0,10.0,74,0.00,,,0.00,Wunderground v.1.15,2013-01-08 08:54:00,
2013-01-08 03:59:00,31.7,24.4,29.36,WNW,297,4.0,4.0,74,0.00,,,0.00,Wunderground v.1.15,2013-01-08 08:59:00,
2013-01-08 04:09:00,31.8,24.5,29.36,NW,318,3.0,10.0,74,0.00,,,0.00,Wunderground v.1.15,2013-01-08 09:09:00,
2013-01-08 04:14:00,31.9,24.2,29.36,WNW,294,4.0,10.0,73,0.00,,,0.00,Wunderground v.1.15,2013-01-08 09:14:00,
2013-01-08 04:19:00,32.0,24.3,29.36,WNW,292,5.0,10.0,73,0.00,,,0.00,Wunderground v.1.15,2013-01-08 09:19:00,
2013-01-08 04:24:00,32.0,24.3,29.36,NW,317,4.0,10.0,73,0.00,,,0.00,Wunderground v.1.15,2013-01-08 09:24:00,
2013-01-08 04:29:00,32.1,24.4,29.36,NW,304,4.0,4.0,73,0.00,,,0.00,Wunderground v.1.15,2013-01-08 09:29:00,
2013-01-08 04:34:00,32.0,24.3,29.36,WNW,292,4.0,10.0,73,0.00,,,0.00,Wunderground v.1.15,2013-01-08 09:34:00,
2013-01-08 04:44:00,32.0,24.3,29.36,WNW,295,4.0,10.0,73,0.00,,,0.00,Wunderground v.1.15,2013-01-08 09:44:00,
2013-01-08 04:49:00,32.1,24.4,29.36,WNW,285,3.0,3.0,73,0.00,,,0.00,Wunderground v.1.15,2013-01-08 09:49:00,
2013-01-08 04:54:00,32.1,24.7,29.36,WNW,301,3.0,10.0,74,0.00,,,0.00,Wunderground v.1.15,2013-01-08 09:54:00,
2013-01-08 04:59:00,32.1,24.4,29.36,WNW,292,4.0,4.0,73,0.00,,,0.00,Wunderground v.1.15,2013-01-08 09:59:00,
2013-01-08 05:04:00,32.2,24.5,29.36,NNW,333,4.0,6.0,73,0.00,,,0.00,Wunderground v.1.15,2013-01-08 10:04:00,
2013-01-08 05:14:00,32.3,24.9,29.37,NW,311,4.0,10.0,74,0.00,,,0.00,Wunderground v.1.15,2013-01-08 10:14:00,
2013-01-08 05:19:00,32.3,24.9,29.37,WNW,302,4.0,10.0,74,0.00,,,0.00,Wunderground v.1.15,2013-01-08 10:19:00,
2013-01-08 05:24:00,32.2,24.8,29.37,WNW,296,4.0,10.0,74,0.00,,,0.00,Wunderground v.1.15,2013-01-08 10:24:00,
2013-01-08 05:29:00,32.1,24.7,29.37,NNW,335,4.0,10.0,74,0.00,,,0.00,Wunderground v.1.15,2013-01-08 10:29:00,
2013-01-08 05:34:00,32.2,24.8,29.37,West,275,4.0,10.0,74,0.00,,,0.00,Wunderground v.1.15,2013-01-08 10:34:00,
2013-01-08 05:39:00,32.2,24.8,29.37,WNW,294,4.0,10.0,74,0.00,,,0.00,Wunderground v.1.15,2013-01-08 10:39:00,
2013-01-08 05:49:00,32.3,24.9,29.37,NW,308,4.0,4.0,74,0.00,,,0.00,Wunderground v.1.15,2013-01-08 10:49:00,
2013-01-08 05:54:00,32.3,24.9,29.37,WNW,289,4.0,10.0,74,0.00,,,0.00,Wunderground v.1.15,2013-01-08 10:54:00,
2013-01-08 05:59:00,32.2,25.2,29.38,NW,313,4.0,4.0,75,0.00,,,0.00,Wunderground v.1.15,2013-01-08 10:59:00,
2013-01-08 06:04:00,32.2,25.2,29.38,WNW,289,4.0,10.0,75,0.00,,,0.00,Wunderground v.1.15,2013-01-08 11:04:00,
2013-01-08 06:09:00,32.2,25.2,29.38,WNW,302,4.0,10.0,75,0.00,,,0.00,Wunderground v.1.15,2013-01-08 11:09:00,
2013-01-08 06:19:00,32.3,24.9,29.39,West,278,4.0,4.0,74,0.00,,,0.00,Wunderground v.1.15,2013-01-08 11:19:00,
2013-01-08 06:24:00,32.2,24.8,29.39,WNW,300,4.0,10.0,74,0.00,,,0.00,Wunderground v.1.15,2013-01-08 11:24:00,
2013-01-08 06:29:00,32.2,24.8,29.40,NNW,327,4.0,10.0,74,0.00,,,0.00,Wunderground v.1.15,2013-01-08 11:29:00,
2013-01-08 06:34:00,32.1,24.7,29.40,WNW,288,4.0,10.0,74,0.00,,,0.00,Wunderground v.1.15,2013-01-08 11:34:00,
2013-01-08 06:39:00,32.1,25.1,29.40,WNW,294,4.0,10.0,75,0.00,,,0.00,Wunderground v.1.15,2013-01-08 11:39:00,
2013-01-08 06:44:00,32.3,24.9,29.40,WNW,302,4.0,10.0,74,0.00,,,0.00,Wunderground v.1.15,2013-01-08 11:44:00,
2013-01-08 06:54:00,32.3,24.9,29.40,WNW,297,5.0,10.0,74,0.00,,,0.00,Wunderground v.1.15,2013-01-08 11:54:00,
2013-01-08 06:59:00,32.3,24.9,29.40,WNW,300,5.0,5.0,74,0.00,,,0.00,Wunderground v.1.15,2013-01-08 11:59:00,
2013-01-08 07:04:00,32.2,24.8,29.40,NW,305,4.0,10.0,74,0.00,,,0.00,Wunderground v.1.15,2013-01-08 12:04:00,
2013-01-08 07:09:00,32.2,25.2,29.40,WNW,288,4.0,10.0,75,0.00,,,0.00,Wunderground v.1.15,2013-01-08 12:09:00,
2013-01-08 07:14:00,32.1,24.7,29.41,NW,315,4.0,10.0,74,0.00,,,0.00,Wunderground v.1.15,2013-01-08 12:14:00,
2013-01-08 07:19:00,32.1,25.1,29.41,WNW,291,4.0,10.0,75,0.00,,,0.00,Wunderground v.1.15,2013-01-08 12:19:00,
2013-01-08 07:24:00,32.1,25.1,29.41,WNW,294,4.0,10.0,75,0.00,,,0.00,Wunderground v.1.15,2013-01-08 12:24:00,
2013-01-08 07:29:00,32.1,25.1,29.41,NW,321,4.0,4.0,75,0.00,,,0.00,Wunderground v.1.15,2013-01-08 12:29:00,
2013-01-08 07:34:00,31.9,24.9,29.41,WNW,289,4.0,10.0,75,0.00,,,0.00,Wunderground v.1.15,2013-01-08 12:34:00,
2013-01-08 07:39:00,31.9,24.9,29.42,WNW,285,3.0,10.0,75,0.00,,,0.00,Wunderground v.1.15,2013-01-08 12:39:00,
2013-01-08 07:49:00,32.0,25.0,29.42,NW,313,4.0,4.0,75,0.00,,,0.00,Wunderground v.1.15,2013-01-08 12:49:00,
2013-01-08 07:54:00,32.1,25.4,29.42,WNW,303,4.0,6.0,76,0.00,,,0.00,Wunderground v.1.15,2013-01-08 12:54:00,
2013-01-08 07:59:00,32.1,25.1,29.43,West,275,4.0,10.0,75,0.00,,,0.00,Wunderground v.1.15,2013-01-08 12:59:00,
2013-01-08 08:04:00,32.2,25.5,29.43,North,349,4.0,10.0,76,0.00,,,0.00,Wunderground v.1.15,2013-01-08 13:04:00,
2013-01-08 08:09:00,32.2,25.5,29.43,WNW,298,3.0,10.0,76,0.00,,,0.00,Wunderground v.1.15,2013-01-08 13:09:00,
2013-01-08 08:14:00,32.5,25.8,29.43,NW,326,3.0,10.0,76,0.00,,,0.00,Wunderground v.1.15,2013-01-08 13:14:00,
2013-01-08 08:19:00,32.6,25.9,29.43,WNW,295,4.0,4.0,76,0.00,,,0.00,Wunderground v.1.15,2013-01-08 13:19:00,
2013-01-08 08:29:00,32.9,25.8,29.43,WNW,284,3.0,3.0,75,0.00,,,0.00,Wunderground v.1.15,2013-01-08 13:29:00,
2013-01-08 08:34:00,33.0,25.9,29.43,WNW,299,3.0,10.0,75,0.00,,,0.00,Wunderground v.1.15,2013-01-08 13:34:00,
2013-01-08 08:39:00,33.0,26.3,29.43,WNW,287,3.0,10.0,76,0.00,,,0.00,Wunderground v.1.15,2013-01-08 13:39:00,
2013-01-08 08:44:00,33.1,26.4,29.44,West,269,3.0,10.0,76,0.00,,,0.00,Wunderground v.1.15,2013-01-08 13:44:00,
2013-01-08 08:49:00,33.2,26.1,29.43,WNW,299,4.0,4.0,75,0.00,,,0.00,Wunderground v.1.15,2013-01-08 13:49:00,
2013-01-08 08:59:00,33.8,26.7,29.44,WNW,298,4.0,4.0,75,0.00,,,0.00,Wunderground v.1.15,2013-01-08 13:59:00,
2013-01-08 09:04:00,34.0,26.9,29.44,WNW,303,3.0,10.0,75,0.00,,,0.00,Wunderground v.1.15,2013-01-08 14:04:00,
2013-01-08 09:09:00,34.2,27.1,29.44,WNW,296,3.0,10.0,75,0.00,,,0.00,Wunderground v.1.15,2013-01-08 14:09:00,
2013-01-08 09:14:00,34.5,27.1,29.44,WNW,297,3.0,10.0,74,0.00,,,0.00,Wunderground v.1.15,2013-01-08 14:14:00,
2013-01-08 09:19:00,34.7,27.3,29.45,WNW,294,3.0,3.0,74,0.00,,,0.00,Wunderground v.1.15,2013-01-08 14:19:00,
2013-01-08 09:24:00,34.9,27.1,29.45,NW,304,3.0,10.0,73,0.00,,,0.00,Wunderground v.1.15,2013-01-08 14:24:00,
2013-01-08 09:34:00,35.5,27.7,29.45,NW,312,3.0,10.0,73,0.00,,,0.00,Wunderground v.1.15,2013-01-08 14:34:00,
2013-01-08 09:39:00,36.0,28.2,29.45,WNW,292,3.0,10.0,73,0.00,,,0.00,Wunderground v.1.15,2013-01-08 14:39:00,
2013-01-08 09:44:00,36.2,28.4,29.45,WSW,245,3.0,10.0,73,0.00,,,0.00,Wunderground v.1.15,2013-01-08 14:44:00,
2013-01-08 09:49:00,36.4,28.6,29.45,WNW,297,4.0,10.0,73,0.00,,,0.00,Wunderground v.1.15,2013-01-08 14:49:00,
2013-01-08 09:54:00,36.6,28.4,29.45,WNW,302,4.0,10.0,72,0.00,,,0.00,Wunderground v.1.15,2013-01-08 14:54:00,
2013-01-08 10:04:00,37.3,29.1,29.45,WNW,297,3.0,10.0,72,0.00,,,0.00,Wunderground v.1.15,2013-01-08 15:04:00,
2013-01-08 10:09:00,37.2,29.0,29.45,WNW,302,3.0,3.0,72,0.00,,,0.00,Wunderground v.1.15,2013-01-08 15:09:00,
2013-01-08 10:14:00,37.5,29.3,29.46,NW,304,3.0,10.0,72,0.00,,,0.00,Wunderground v.1.15,2013-01-08 15:14:00,
2013-01-08 10:19:00,37.4,29.5,29.46,West,261,3.0,3.0,73,0.00,,,0.00,Wunderground v.1.15,2013-01-08 15:19:00,
2013-01-08 10:24:00,37.1,29.2,29.46,WNW,289,3.0,5.0,73,0.00,,,0.00,Wunderground v.1.15,2013-01-08 15:24:00,
2013-01-08 10:29:00,36.9,29.1,29.46,WNW,288,4.0,4.0,73,0.00,,,0.00,Wunderground v.1.15,2013-01-08 15:29:00,
2013-01-08 10:39:00,36.5,29.0,29.46,NW,304,4.0,10.0,74,0.00,,,0.00,Wunderground v.1.15,2013-01-08 15:39:00,
2013-01-08 10:44:00,36.3,29.1,29.45,NNW,335,4.0,10.0,75,0.00,,,0.00,Wunderground v.1.15,2013-01-08 15:44:00,
2013-01-08 10:49:00,36.3,29.5,29.46,WNW,294,3.0,3.0,76,0.00,,,0.00,Wunderground v.1.15,2013-01-08 15:49:00,
2013-01-08 10:54:00,36.3,29.8,29.46,West,275,3.0,10.0,77,0.00,,,0.00,Wunderground v.1.15,2013-01-08 15:54:00,
2013-01-08 10:59:00,36.2,29.7,29.46,NW,306,3.0,3.0,77,0.00,,,0.00,Wunderground v.1.15,2013-01-08 15:59:00,
2013-01-08 11:04:00,36.4,29.9,29.46,West,277,2.0,10.0,77,0.00,,,0.00,Wunderground v.1.15,2013-01-08 16:04:00,
2013-01-08 11:09:00,36.6,30.1,29.46,WNW,292,2.0,10.0,77,0.00,,,0.00,Wunderground v.1.15,2013-01-08 16:09:00,
2013-01-08 11:14:00,36.7,30.2,29.46,NW,325,2.0,10.0,77,0.00,,,0.00,Wunderground v.1.15,2013-01-08 16:14:00,
2013-01-08 11:19:00,36.8,30.3,29.47,WNW,293,3.0,10.0,77,0.00,,,0.00,Wunderground v.1.15,2013-01-08 16:19:00,
2013-01-08 11:24:00,36.9,30.4,29.47,NW,325,3.0,10.0,77,0.00,,,0.00,Wunderground v.1.15,2013-01-08 16:24:00,
2013-01-08 11:29:00,36.9,30.4,29.47,NW,311,3.0,10.0,77,0.00,,,0.00,Wunderground v.1.15,2013-01-08 16:29:00,
2013-01-08 11:39:00,36.9,30.7,29.46,West,279,4.0,4.0,78,0.00,,,0.00,Wunderground v.1.15,2013-01-08 16:39:00,
2013-01-08 11:44:00,37.0,30.8,29.46,WNW,292,3.0,10.0,78,0.00,,,0.00,Wunderground v.1.15,2013-01-08 16:44:00,
2013-01-08 11:49:00,37.0,30.8,29.46,NW,323,4.0,4.0,78,0.00,,,0.00,Wunderground v.1.15,2013-01-08 16:49:00,
2013-01-08 11:54:00,37.0,31.1,29.46,WNW,288,4.0,10.0,79,0.00,,,0.00,Wunderground v.1.15,2013-01-08 16:54:00,
2013-01-08 11:59:00,37.0,31.1,29.46,NW,325,3.0,10.0,79,0.00,,,0.00,Wunderground v.1.15,2013-01-08 16:59:00,
2013-01-08 12:04:00,37.1,31.2,29.46,WNW,298,3.0,10.0,79,0.00,,,0.00,Wunderground v.1.15,2013-01-08 17:04:00,
2013-01-08 12:14:00,37.6,31.7,29.45,NW,317,3.0,10.0,79,0.00,,,0.00,Wunderground v.1.15,2013-01-08 17:14:00,
2013-01-08 12:19:00,37.9,31.7,29.45,NW,320,3.0,10.0,78,0.00,,,0.00,Wunderground v.1.15,2013-01-08 17:19:00,
2013-01-08 12:24:00,37.9,31.7,29.45,WNW,288,3.0,10.0,78,0.00,,,0.00,Wunderground v.1.15,2013-01-08 17:24:00,
2013-01-08 12:29:00,38.0,31.7,29.45,NW,315,3.0,3.0,78,0.00,,,0.00,Wunderground v.1.15,2013-01-08 17:29:00,
2013-01-08 12:34:00,38.5,32.2,29.45,WNW,301,3.0,10.0,78,0.00,,,0.00,Wunderground v.1.15,2013-01-08 17:34:00,
2013-01-08 12:44:00,39.0,32.4,29.46,WNW,300,2.0,10.0,77,0.00,,,0.00,Wunderground v.1.15,2013-01-08 17:44:00,
2013-01-08 12:49:00,39.1,32.2,29.46,NW,315,2.0,10.0,76,0.00,,,0.00,Wunderground v.1.15,2013-01-08 17:49:00,
2013-01-08 12:54:00,39.1,32.2,29.46,NNW,346,2.0,10.0,76,0.00,,,0.00,Wunderground v.1.15,2013-01-08 17:54:00,
2013-01-08 12:59:00,39.0,32.1,29.46,NW,324,2.0,10.0,76,0.00,,,0.00,Wunderground v.1.15,2013-01-08 17:59:00,
2013-01-08 13:04:00,38.9,32.3,29.45,NW,324,2.0,10.0,77,0.00,,,0.00,Wunderground v.1.15,2013-01-08 18:04:00,
2013-01-08 13:09:00,39.3,32.7,29.45,WNW,292,2.0,10.0,77,0.00,,,0.00,Wunderground v.1.15,2013-01-08 18:09:00,
2013-01-08 13:19:00,39.6,32.7,29.45,West,280,3.0,10.0,76,0.00,,,0.00,Wunderground v.1.15,2013-01-08 18:19:00,
2013-01-08 13:24:00,39.9,32.9,29.46,NW,324,2.0,10.0,76,0.00,,,0.00,Wunderground v.1.15,2013-01-08 18:24:00,
2013-01-08 13:29:00,40.0,33.0,29.45,WNW,301,2.0,2.0,76,0.00,,,0.00,Wunderground v.1.15,2013-01-08 18:29:00,
2013-01-08 13:34:00,40.0,33.0,29.45,WNW,284,2.0,5.0,76,0.00,,,0.00,Wunderground v.1.15,2013-01-08 18:34:00,
2013-01-08 13:39:00,39.8,32.8,29.45,WNW,290,3.0,10.0,76,0.00,,,0.00,Wunderground v.1.15,2013-01-08 18:39:00,
2013-01-08 13:49:00,38.9,32.3,29.45,WNW,284,4.0,10.0,77,0.00,,,0.00,Wunderground v.1.15,2013-01-08 18:49:00,
2013-01-08 13:54:00,38.7,32.4,29.45,WNW,296,5.0,10.0,78,0.00,,,0.00,Wunderground v.1.15,2013-01-08 18:54:00,
2013-01-08 13:59:00,38.9,32.9,29.45,NW,308,4.0,10.0,79,0.00,,,0.00,Wunderground v.1.15,2013-01-08 18:59:00,
2013-01-08 14:04:00,39.1,32.8,29.45,WNW,295,3.0,10.0,78,0.00,,,0.00,Wunderground v.1.15,2013-01-08 19:04:00,
2013-01-08 14:09:00,39.0,32.4,29.45,NW,318,3.0,10.0,77,0.00,,,0.00,Wunderground v.1.15,2013-01-08 19:09:00,
2013-01-08 14:14:00,38.9,32.6,29.46,WNW,283,3.0,10.0,78,0.00,,,0.00,Wunderground v.1.15,2013-01-08 19:14:00,
2013-01-08 14:24:00,38.7,32.4,29.46,NNW,329,4.0,10.0,78,0.00,,,0.00,Wunderground v.1.15,2013-01-08 19:24:00,
2013-01-08 14:29:00,38.7,32.4,29.46,WNW,291,3.0,10.0,78,0.00,,,0.00,Wunderground v.1.15,2013-01-08 19:29:00,
2013-01-08 14:34:00,38.7,32.4,29.46,NW,322,2.0,10.0,78,0.00,,,0.00,Wunderground v.1.15,2013-01-08 19:34:00,
2013-01-08 14:39:00,38.7,32.4,29.46,West,273,2.0,10.0,78,0.00,,,0.00,Wunderground v.1.15,2013-01-08 19:39:00,
2013-01-08 14:44:00,38.7,32.4,29.47,WNW,299,2.0,10.0,78,0.00,,,0.00,Wunderground v.1.15,2013-01-08 19:44:00,
2013-01-08 14:49:00,38.7,32.4,29.47,NNW,336,2.0,10.0,78,0.00,,,0.00,Wunderground v.1.15,2013-01-08 19:49:00,
2013-01-08 14:54:00,38.6,32.3,29.46,WNW,287,2.0,10.0,78,0.00,,,0.00,Wunderground v.1.15,2013-01-08 19:54:00,
2013-01-08 14:59:00,38.4,32.1,29.47,WNW,298,2.0,10.0,78,0.00,,,0.00,Wunderground v.1.15,2013-01-08 19:59:00,
2013-01-08 15:04:00,38.4,32.5,29.47,WNW,302,2.0,10.0,79,0.00,,,0.00,Wunderground v.1.15,2013-01-08 20:04:00,
2013-01-08 15:09:00,38.3,32.4,29.47,NNW,333,1.0,10.0,79,0.00,,,0.00,Wunderground v.1.15,2013-01-08 20:09:00,
2013-01-08 15:14:00,38.2,32.3,29.48,NW,325,1.0,10.0,79,0.00,,,0.00,Wunderground v.1.15,2013-01-08 20:14:00,
2013-01-08 15:24:00,38.0,32.4,29.48,WNW,301,1.0,10.0,80,0.00,,,0.00,Wunderground v.1.15,2013-01-08 20:24:00,
2013-01-08 15:29:00,37.9,32.3,29.48,NW,315,1.0,10.0,80,0.00,,,0.00,Wunderground v.1.15,2013-01-08 20:29:00,
2013-01-08 15:34:00,37.8,32.2,29.48,NW,313,1.0,10.0,80,0.00,,,0.00,Wunderground v.1.15,2013-01-08 20:34:00,
2013-01-08 15:39:00,37.7,32.4,29.48,WNW,298,1.0,1.0,81,0.00,,,0.00,Wunderground v.1.15,2013-01-08 20:39:00,
2013-01-08 15:44:00,37.6,32.3,29.48,NW,317,1.0,10.0,81,0.00,,,0.00,Wunderground v.1.15,2013-01-08 20:44:00,
2013-01-08 15:49:00,37.5,32.2,29.49,NNW,327,1.0,10.0,81,0.00,,,0.00,Wunderground v.1.15,2013-01-08 20:49:00,
2013-01-08 15:59:00,37.4,32.1,29.49,NW,323,0.0,10.0,81,0.00,,,0.00,Wunderground v.1.15,2013-01-08 20:59:00,
2013-01-08 16:04:00,37.5,32.5,29.49,NW,323,0.0,10.0,82,0.00,,,0.00,Wunderground v.1.15,2013-01-08 21:04:00,
2013-01-08 16:09:00,37.4,32.4,29.49,NW,323,0.0,10.0,82,0.00,,,0.00,Wunderground v.1.15,2013-01-08 21:09:00,
2013-01-08 16:14:00,37.4,32.4,29.49,NW,313,1.0,10.0,82,0.00,,,0.00,Wunderground v.1.15,2013-01-08 21:14:00,
2013-01-08 16:19:00,37.3,32.3,29.49,WNW,287,1.0,1.0,82,0.00,,,0.00,Wunderground v.1.15,2013-01-08 21:19:00,
2013-01-08 16:29:00,37.1,32.1,29.49,WNW,289,1.0,10.0,82,0.00,,,0.00,Wunderground v.1.15,2013-01-08 21:29:00,
2013-01-08 16:34:00,37.0,32.0,29.49,WNW,285,1.0,10.0,82,0.00,,,0.00,Wunderground v.1.15,2013-01-08 21:34:00,
2013-01-08 16:39:00,36.8,31.8,29.49,WNW,285,1.0,1.0,82,0.00,,,0.00,Wunderground v.1.15,2013-01-08 21:39:00,
2013-01-08 16:44:00,36.6,31.6,29.50,WNW,285,1.0,10.0,82,0.00,,,0.00,Wunderground v.1.15,2013-01-08 21:44:00,
2013-01-08 16:49:00,36.5,31.5,29.50,WNW,285,0.0,10.0,82,0.00,,,0.00,Wunderground v.1.15,2013-01-08 21:49:00,
2013-01-08 16:54:00,36.3,31.6,29.50,WNW,285,0.0,10.0,83,0.00,,,0.00,Wunderground v.1.15,2013-01-08 21:54:00,
2013-01-08 17:04:00,36.1,31.7,29.50,WNW,303,0.0,10.0,84,0.00,,,0.00,Wunderground v.1.15,2013-01-08 22:04:00,
2013-01-08 17:09:00,36.0,31.3,29.50,NW,304,1.0,10.0,83,0.00,,,0.00,Wunderground v.1.15,2013-01-08 22:09:00,
2013-01-08 17:14:00,35.7,31.0,29.51,NW,304,1.0,10.0,83,0.00,,,0.00,Wunderground v.1.15,2013-01-08 22:14:00,
2013-01-08 17:19:00,35.5,30.8,29.51,WNW,294,1.0,1.0,83,0.00,,,0.00,Wunderground v.1.15,2013-01-08 22:19:00,
2013-01-08 17:24:00,35.2,30.6,29.51,WNW,294,1.0,2.0,83,0.00,,,0.00,Wunderground v.1.15,2013-01-08 22:24:00,
2013-01-08 17:34:00,34.9,30.6,29.51,WNW,294,0.0,10.0,84,0.00,,,0.00,Wunderground v.1.15,2013-01-08 22:34:00,
2013-01-08 17:39:00,34.8,30.2,29.51,WNW,294,0.0,10.0,83,0.00,,,0.00,Wunderground v.1.15,2013-01-08 22:39:00,
2013-01-08 17:44:00,34.8,30.5,29.51,WNW,294,0.0,10.0,84,0.00,,,0.00,Wunderground v.1.15,2013-01-08 22:44:00,
2013-01-08 17:49:00,34.8,30.5,29.51,WNW,294,0.0,10.0,84,0.00,,,0.00,Wunderground v.1.15,2013-01-08 22:49:00,
2013-01-08 17:54:00,34.8,30.5,29.51,WNW,298,0.0,10.0,84,0.00,,,0.00,Wunderground v.1.15,2013-01-08 22:54:00,
2013-01-08 17:59:00,34.7,30.4,29.51,NW,306,1.0,10.0,84,0.00,,,0.00,Wunderground v.1.15,2013-01-08 22:59:00,
2013-01-08 18:04:00,34.6,30.3,29.51,West,279,1.0,10.0,84,0.00,,,0.00,Wunderground v.1.15,2013-01-08 23:04:00,
2013-01-08 18:09:00,34.6,30.3,29.51,WNW,293,2.0,10.0,84,0.00,,,0.00,Wunderground v.1.15,2013-01-08 23:09:00,
2013-01-08 18:14:00,34.5,30.5,29.51,WNW,298,2.0,10.0,85,0.00,,,0.00,Wunderground v.1.15,2013-01-08 23:14:00,
2013-01-08 18:19:00,34.3,30.3,29.51,NW,323,2.0,10.0,85,0.00,,,0.00,Wunderground v.1.15,2013-01-08 23:19:00,
2013-01-08 18:24:00,34.2,30.2,29.51,WNW,294,1.0,10.0,85,0.00,,,0.00,Wunderground v.1.15,2013-01-08 23:24:00,
2013-01-08 18:29:00,34.2,30.2,29.51,WNW,296,1.0,1.0,85,0.00,,,0.00,Wunderground v.1.15,2013-01-08 23:29:00,
2013-01-08 18:34:00,34.1,30.1,29.51,WNW,296,0.0,2.0,85,0.00,,,0.00,Wunderground v.1.15,2013-01-08 23:34:00,
2013-01-08 18:39:00,34.0,30.0,29.51,WNW,296,0.0,10.0,85,0.00,,,0.00,Wunderground v.1.15,2013-01-08 23:39:00,
2013-01-08 18:49:00,33.9,30.2,29.51,WNW,296,0.0,10.0,86,0.00,,,0.00,Wunderground v.1.15,2013-01-08 23:49:00,
2013-01-08 18:54:00,33.8,30.1,29.51,WNW,295,1.0,10.0,86,0.00,,,0.00,Wunderground v.1.15,2013-01-08 23:54:00,
2013-01-08 18:59:00,33.8,30.1,29.51,WNW,294,1.0,1.0,86,0.00,,,0.00,Wunderground v.1.15,2013-01-08 23:59:00,
2013-01-08 19:04:00,33.7,30.0,29.51,WNW,292,1.0,10.0,86,0.00,,,0.00,Wunderground v.1.15,2013-01-09 00:04:00,
2013-01-08 19:14:00,33.5,30.0,29.51,WNW,292,1.0,10.0,87,0.00,,,0.00,Wunderground v.1.15,2013-01-09 00:14:00,
2013-01-08 19:19:00,33.5,30.0,29.51,WNW,285,1.0,10.0,87,0.00,,,0.00,Wunderground v.1.15,2013-01-09 00:19:00,
2013-01-08 19:24:00,33.4,29.9,29.51,WNW,285,1.0,10.0,87,0.00,,,0.00,Wunderground v.1.15,2013-01-09 00:24:00,
2013-01-08 19:29:00,33.4,29.9,29.51,WNW,285,1.0,1.0,87,0.00,,,0.00,Wunderground v.1.15,2013-01-09 00:29:00,
2013-01-08 19:34:00,33.4,29.9,29.51,WSW,254,1.0,3.0,87,0.00,,,0.00,Wunderground v.1.15,2013-01-09 00:34:00,
2013-01-08 19:39:00,33.3,29.8,29.51,WSW,252,2.0,2.0,87,0.00,,,0.00,Wunderground v.1.15,2013-01-09 00:39:00,
2013-01-08 19:44:00,33.2,29.8,29.51,WSW,253,2.0,10.0,87,0.00,,,0.00,Wunderground v.1.15,2013-01-09 00:44:00,
2013-01-08 19:49:00,33.2,29.8,29.51,WSW,254,1.0,10.0,87,0.00,,,0.00,Wunderground v.1.15,2013-01-09 00:49:00,
2013-01-08 19:59:00,33.1,29.7,29.51,WSW,257,1.0,1.0,87,0.00,,,0.00,Wunderground v.1.15,2013-01-09 00:59:00,
2013-01-08 20:04:00,33.1,29.9,29.51,WSW,257,1.0,3.0,88,0.00,,,0.00,Wunderground v.1.15,2013-01-09 01:04:00,
2013-01-08 20:09:00,33.0,29.8,29.51,WSW,257,1.0,1.0,88,0.00,,,0.00,Wunderground v.1.15,2013-01-09 01:09:00,
2013-01-08 20:14:00,33.0,29.8,29.51,WSW,257,1.0,10.0,88,0.00,,,0.00,Wunderground v.1.15,2013-01-09 01:14:00,
2013-01-08 20:19:00,32.9,29.7,29.51,WSW,253,2.0,10.0,88,0.00,,,0.00,Wunderground v.1.15,2013-01-09 01:19:00,
2013-01-08 20:24:00,32.8,29.6,29.51,WSW,252,4.0,10.0,88,0.00,,,0.00,Wunderground v.1.15,2013-01-09 01:24:00,
2013-01-08 20:29:00,32.5,29.3,29.51,WSW,244,6.0,10.0,88,0.00,,,0.00,Wunderground v.1.15,2013-01-09 01:29:00,
2013-01-08 20:34:00,32.3,29.1,29.51,WSW,252,6.0,10.0,88,0.00,,,0.00,Wunderground v.1.15,2013-01-09 01:34:00,
2013-01-08 20:39:00,32.4,29.5,29.51,West,259,7.0,10.0,89,0.00,,,0.00,Wunderground v.1.15,2013-01-09 01:39:00,
2013-01-08 20:49:00,32.3,29.1,29.50,WSW,248,7.0,10.0,88,0.00,,,0.00,Wunderground v.1.15,2013-01-09 01:49:00,
2013-01-08 20:54:00,32.2,29.3,29.50,WSW,254,7.0,10.0,89,0.00,,,0.00,Wunderground v.1.15,2013-01-09 01:54:00,
2013-01-08 20:59:00,32.1,28.9,29.50,West,259,7.0,10.0,88,0.00,,,0.00,Wunderground v.1.15,2013-01-09 01:59:00,
2013-01-08 21:04:00,32.0,29.1,29.50,WSW,254,7.0,10.0,89,0.00,,,0.00,Wunderground v.1.15,2013-01-09 02:04:00,
2013-01-08 21:09:00,31.9,29.0,29.50,WSW,253,6.0,6.0,89,0.00,,,0.00,Wunderground v.1.15,2013-01-09 02:09:00,
2013-01-08 21:19:00,32.0,28.8,29.49,WSW,244,7.0,10.0,88,0.00,,,0.00,Wunderground v.1.15,2013-01-09 02:19:00,
2013-01-08 21:24:00,32.0,28.8,29.49,WSW,245,7.0,10.0,88,0.00,,,0.00,Wunderground v.1.15,2013-01-09 02:24:00,
2013-01-08 21:29:00,32.0,28.8,29.49,WSW,248,7.0,10.0,88,0.00,,,0.00,Wunderground v.1.15,2013-01-09 02:29:00,
2013-01-08 21:34:00,32.1,28.7,29.49,West,259,6.0,10.0,87,0.00,,,0.00,Wunderground v.1.15,2013-01-09 02:34:00,
2013-01-08 21:39:00,32.4,29.0,29.49,West,266,6.0,6.0,87,0.00,,,0.00,Wunderground v.1.15,2013-01-09 02:39:00,
2013-01-08 21:49:00,32.8,28.8,29.49,West,266,5.0,10.0,85,0.00,,,0.00,Wunderground v.1.15,2013-01-09 02:49:00,
2013-01-08 21:54:00,32.7,28.4,29.49,West,274,6.0,10.0,84,0.00,,,0.00,Wunderground v.1.15,2013-01-09 02:54:00,
2013-01-08 21:59:00,32.7,28.4,29.50,WSW,238,7.0,10.0,84,0.00,,,0.00,Wunderground v.1.15,2013-01-09 02:59:00,
2013-01-08 22:04:00,32.6,28.3,29.50,WSW,250,7.0,10.0,84,0.00,,,0.00,Wunderground v.1.15,2013-01-09 03:04:00,
2013-01-08 22:09:00,32.4,27.8,29.50,WSW,240,6.0,10.0,83,0.00,,,0.00,Wunderground v.1.15,2013-01-09 03:09:00,
2013-01-08 22:14:00,32.1,27.8,29.50,WSW,252,6.0,10.0,84,0.00,,,0.00,Wunderground v.1.15,2013-01-09 03:14:00,
2013-01-08 22:24:00,32.0,29.1,29.50,WSW,240,7.0,10.0,89,0.00,,,0.00,Wunderground v.1.15,2013-01-09 03:24:00,
2013-01-08 22:29:00,32.1,27.5,29.49,WSW,238,8.0,10.0,83,0.00,,,0.00,Wunderground v.1.15,2013-01-09 03:29:00,
2013-01-08 22:34:00,32.2,27.3,29.49,WSW,240,9.0,10.0,82,0.00,,,0.00,Wunderground v.1.15,2013-01-09 03:34:00,
2013-01-08 22:39:00,32.1,27.2,29.49,WSW,240,9.0,9.0,82,0.00,,,0.00,Wunderground v.1.15,2013-01-09 03:39:00,
2013-01-08 22:44:00,32.0,27.1,29.48,WSW,239,8.0,10.0,82,0.00,,,0.00,Wunderground v.1.15,2013-01-09 03:44:00,
2013-01-08 22:49:00,31.8,26.9,29.48,WSW,241,7.0,7.0,82,0.00,,,0.00,Wunderground v.1.15,2013-01-09 03:49:00,
2013-01-08 22:59:00,32.0,26.8,29.48,WSW,248,6.0,10.0,81,0.00,,,0.00,Wunderground v.1.15,2013-01-09 03:59:00,
2013-01-08 23:04:00,32.3,26.8,29.48,West,261,6.0,10.0,80,0.00,,,0.00,Wunderground v.1.15,2013-01-09 04:04:00,
2013-01-08 23:09:00,32.5,26.7,29.48,WSW,239,6.0,10.0,79,0.00,,,0.00,Wunderground v.1.15,2013-01-09 04:09:00,
2013-01-08 23:14:00,32.6,26.5,29.48,WSW,238,7.0,10.0,78,0.00,,,0.00,Wunderground v.1.15,2013-01-09 04:14:00,
2013-01-08 23:19:00,32.4,26.3,29.48,SW,231,7.0,10.0,78,0.00,,,0.00,Wunderground v.1.15,2013-01-09 04:19:00,
2013-01-08 23:29:00,32.3,25.9,29.47,WSW,248,6.0,10.0,77,0.00,,,0.00,Wunderground v.1.15,2013-01-09 04:29:00,
2013-01-08 23:34:00,32.4,26.0,29.47,WSW,248,7.0,10.0,77,0.00,,,0.00,Wunderground v.1.15,2013-01-09 04:34:00,
2013-01-08 23:39:00,32.6,25.9,29.47,West,259,7.0,7.0,76,0.00,,,0.00,Wunderground v.1.15,2013-01-09 04:39:00,
2013-01-08 23:44:00,32.6,25.6,29.47,WSW,256,7.0,10.0,75,0.00,,,0.00,Wunderground v.1.15,2013-01-09 04:44:00,
2013-01-08 23:49:00,32.7,25.6,29.47,WSW,252,7.0,7.0,75,0.00,,,0.00,Wunderground v.1.15,2013-01-09 04:49:00,
2013-01-08 23:54:00,32.6,25.2,29.47,West,266,6.0,9.0,74,0.00,,,0.00,Wunderground v.1.15,2013-01-09 04:54:00,
2013-01-08 23:59:00,32.3,25.3,29.47,West,276,6.0,6.0,75,0.00,,,0.00,Wunderground v.1.15,2013-01-09 04:59:00,